IW7DVM-13 Weather Reports


Display with metric or nautical units.
time (UTC)temp
F
wind
direction
speed
MPH
gust
MPH
rain 1hr
in
rain 24hr
in
rain mn
in
humidity
%
barometer
mb
20260903044003 78 280 2.0 4.0 0.00 0.00 0.00 66 1009.6
20260903043503 78 291 1.0 2.0 0.00 0.00 0.00 66 1009.6
20260903043003 78 270 0.0 2.0 0.00 0.00 0.00 67 1009.6
20260903042503 78 277 1.0 2.0 0.00 0.00 0.00 67 1009.5
20260903042003 77 271 1.0 3.0 0.00 0.00 0.00 67 1009.5
20260903041503 77 276 1.0 3.0 0.00 0.00 0.00 67 1009.5
20260903041003 77 276 1.0 3.0 0.00 0.00 0.00 67 1009.5
20260903040503 77 267 1.0 3.0 0.00 0.00 0.00 67 1009.5
20260903040003 76 282 1.0 2.0 0.00 0.00 0.00 67 1009.6
20260903035503 76 337 0.0 2.0 0.00 0.00 0.00 68 1009.7
20260903035003 76 337 0.0 1.0 0.00 0.00 0.00 68 1009.5
20260903034503 76 337 0.0 1.0 0.00 0.00 0.00 68 1009.5
20260903034003 76 0 0.0 0.0 0.00 0.00 0.00 68 1009.5
20260903033503 75 0 0.0 0.0 0.00 0.00 0.00 68 1009.4
20260903033003 75 0 0.0 0.0 0.00 0.00 0.00 68 1009.5
20260903032503 75 0 0.0 0.0 0.00 0.00 0.00 68 1009.6
20260903032003 75 337 0.0 1.0 0.00 0.00 0.00 68 1009.7
20260903031503 75 337 0.0 1.0 0.00 0.00 0.00 68 1009.5
20260903031003 75 337 0.0 1.0 0.00 0.00 0.00 68 1009.5
20260903030503 75 337 1.0 2.0 0.00 0.00 0.00 68 1009.5
20260903030003 75 337 1.0 2.0 0.00 0.00 0.00 68 1009.5
20260903025503 75 337 1.0 2.0 0.00 0.00 0.00 68 1009.5
20260903025003 75 337 1.0 2.0 0.00 0.00 0.00 67 1009.5
20260903024503 75 337 0.0 1.0 0.00 0.00 0.00 67 1009.6
20260903024003 75 337 0.0 2.0 0.00 0.00 0.00 67 1009.7
20260903023503 76 337 0.0 1.0 0.00 0.00 0.00 67 1009.6
20260903023003 76 0 0.0 0.0 0.00 0.00 0.00 67 1009.6
20260903022503 76 0 0.0 0.0 0.00 0.00 0.00 67 1009.6
20260903022003 76 337 1.0 2.0 0.00 0.00 0.00 67 1009.8
20260903021503 76 337 1.0 2.0 0.00 0.00 0.00 67 1009.8
20260903021003 77 337 0.0 1.0 0.00 0.00 0.00 67 1009.7
20260903020503 77 325 1.0 2.0 0.00 0.00 0.00 66 1009.8
20260903020003 78 315 1.0 2.0 0.00 0.00 0.00 66 1009.8
20260903015503 78 315 1.0 2.0 0.00 0.00 0.00 66 1009.8
20260903015003 78 315 1.0 2.0 0.00 0.00 0.00 66 1009.9
20260903014503 78 314 1.0 3.0 0.00 0.00 0.00 66 1009.8
20260903014003 78 272 0.0 2.0 0.00 0.00 0.00 66 1009.9
20260903013503 78 274 1.0 2.0 0.00 0.00 0.00 66 1009.9
20260903013003 78 276 1.0 2.0 0.00 0.00 0.00 66 1009.9
20260903012503 78 273 1.0 3.0 0.00 0.00 0.00 66 1009.9
20260903012003 78 291 0.0 2.0 0.00 0.00 0.00 66 1009.9
20260903011503 78 313 1.0 2.0 0.00 0.00 0.00 66 1009.8
20260903011003 78 292 0.0 1.0 0.00 0.00 0.00 66 1009.8
20260903010503 78 292 0.0 1.0 0.00 0.00 0.00 67 1010.0
20260903010003 78 303 0.0 2.0 0.00 0.00 0.00 67 1010.0
20260903005503 78 307 0.0 2.0 0.00 0.00 0.00 67 1010.0
20260903005003 78 271 1.0 2.0 0.00 0.00 0.00 68 1010.0
20260903004503 77 270 0.0 2.0 0.00 0.00 0.00 68 1010.0
20260903004003 77 276 0.0 2.0 0.00 0.00 0.00 68 1009.9
20260903003503 77 0 0.0 0.0 0.00 0.00 0.00 68 1009.8
20260903003003 76 22 0.0 1.0 0.00 0.00 0.00 68 1010.0
20260903002503 76 22 0.0 2.0 0.00 0.00 0.00 68 1010.0
20260903002003 76 0 0.0 0.0 0.00 0.00 0.00 68 1009.9
20260903001503 76 0 0.0 0.0 0.00 0.00 0.00 68 1010.0
20260903001003 77 0 0.0 0.0 0.00 0.00 0.00 68 1009.9
20260903000503 77 0 0.0 0.0 0.00 0.00 0.00 68 1010.0
20260903000003 77 67 0.0 2.0 0.00 0.00 0.00 67 1009.9
20260902235503 78 32 2.0 3.0 0.00 0.00 0.00 67 1009.9
20260902235003 78 0 0.0 0.0 0.00 0.00 0.00 67 1009.8
20260902234503 78 0 0.0 0.0 0.00 0.00 0.00 67 1009.8
20260902234003 79 0 0.0 0.0 0.00 0.00 0.00 67 1009.9
20260902233503 79 0 0.0 0.0 0.00 0.00 0.00 67 1009.9
20260902233003 79 0 0.0 0.0 0.00 0.00 0.00 67 1010.0
20260902232503 79 292 0.0 1.0 0.00 0.00 0.00 67 1010.1
20260902232003 79 0 0.0 0.0 0.00 0.00 0.00 67 1010.1
20260902231503 79 292 0.0 2.0 0.00 0.00 0.00 67 1010.0
20260902231003 80 292 0.0 2.0 0.00 0.00 0.00 67 1009.9
20260902230503 80 284 0.0 2.0 0.00 0.00 0.00 66 1010.1
20260902230003 80 270 0.0 1.0 0.00 0.00 0.00 66 1010.2
20260902225503 80 287 1.0 3.0 0.00 0.00 0.00 66 1010.2
20260902225003 80 269 1.0 5.0 0.00 0.00 0.00 66 1010.2
20260902224503 80 310 1.0 4.0 0.00 0.00 0.00 66 1010.2
20260902224003 80 275 1.0 2.0 0.00 0.00 0.00 66 1010.0
20260902223503 80 270 0.0 1.0 0.00 0.00 0.00 66 1010.2
20260902223003 80 270 0.0 2.0 0.00 0.00 0.00 66 1010.0
20260902222503 80 270 0.0 1.0 0.00 0.00 0.00 66 1010.0
20260902222004 80 270 0.0 1.0 0.00 0.00 0.00 66 1010.0
20260902221503 80 257 0.0 2.0 0.00 0.00 0.00 67 1010.2
20260902221003 80 270 1.0 2.0 0.00 0.00 0.00 67 1010.2
20260902220503 80 277 0.0 2.0 0.00 0.00 0.00 67 1010.2
20260902220003 80 270 1.0 2.0 0.00 0.00 0.00 67 1010.2
20260902215503 80 259 1.0 2.0 0.00 0.00 0.00 67 1010.2
20260902215003 80 284 0.0 1.0 0.00 0.00 0.00 66 1010.2
20260902214503 80 0 0.0 0.0 0.00 0.00 0.00 66 1010.1
20260902214003 80 0 0.0 0.0 0.00 0.00 0.00 66 1010.2
20260902213503 80 305 0.0 1.0 0.00 0.00 0.00 66 1010.3
20260902213003 80 0 0.0 0.0 0.00 0.00 0.00 66 1010.3
20260902212503 80 315 0.0 1.0 0.00 0.00 0.00 66 1010.3
20260902212003 80 315 0.0 2.0 0.00 0.00 0.00 66 1010.3
20260902211503 80 0 0.0 0.0 0.00 0.00 0.00 66 1010.2
20260902211003 80 315 0.0 1.0 0.00 0.00 0.00 66 1010.2
20260902210503 80 315 0.0 2.0 0.00 0.00 0.00 66 1010.3
20260902210003 80 306 1.0 2.0 0.00 0.00 0.00 66 1010.3
20260902205503 80 292 0.0 2.0 0.00 0.00 0.00 66 1010.3
20260902205003 80 311 1.0 10.0 0.00 0.00 0.00 65 1010.2
20260902204503 80 314 1.0 2.0 0.00 0.00 0.00 65 1010.3
20260902204003 81 319 1.0 3.0 0.00 0.00 0.00 65 1010.3
20260902203503 80 312 1.0 3.0 0.00 0.00 0.00 65 1010.2
20260902203003 81 270 0.0 2.0 0.00 0.00 0.00 65 1010.3
20260902202503 80 316 1.0 3.0 0.00 0.00 0.00 65 1010.3
20260902202003 80 326 2.0 4.0 0.00 0.00 0.00 65 1010.1
20260902201503 81 315 1.0 6.0 0.00 0.00 0.00 65 1010.2
20260902201004 81 315 1.0 10.0 0.00 0.00 0.00 65 1010.2
20260902200503 81 304 3.0 9.0 0.00 0.00 0.00 65 1010.2
20260902200003 81 259 2.0 10.0 0.00 0.00 0.00 64 1010.2
20260902195503 81 258 4.0 11.0 0.00 0.00 0.00 64 1010.5
20260902195003 81 250 2.0 10.0 0.00 0.00 0.00 64 1010.2
20260902194503 81 326 2.0 3.0 0.00 0.00 0.00 64 1010.0
20260902194003 81 315 1.0 2.0 0.00 0.00 0.00 65 1010.0
20260902193503 81 319 2.0 5.0 0.00 0.00 0.00 65 1010.0
20260902193003 81 317 1.0 4.0 0.00 0.00 0.00 64 1010.1
20260902192503 81 318 2.0 5.0 0.00 0.00 0.00 65 1010.1
20260902192004 81 315 1.0 4.0 0.00 0.00 0.00 65 1010.1
20260902191503 81 316 2.0 4.0 0.00 0.00 0.00 65 1010.1
20260902191003 81 335 3.0 5.0 0.00 0.00 0.00 65 1010.1
20260902190503 81 332 2.0 5.0 0.00 0.00 0.00 65 1010.0
20260902190003 81 330 2.0 6.0 0.00 0.00 0.00 65 1010.1
20260902185503 81 333 2.0 5.0 0.00 0.00 0.00 65 1010.0
20260902185003 80 316 2.0 4.0 0.00 0.00 0.00 65 1010.0
20260902184503 80 328 2.0 4.0 0.00 0.00 0.00 66 1010.1
20260902184003 80 329 1.0 4.0 0.00 0.00 0.00 66 1010.0
20260902183503 80 332 2.0 6.0 0.00 0.00 0.00 66 1010.0
20260902183003 80 294 2.0 5.0 0.00 0.00 0.00 66 1010.0
20260902182503 80 276 2.0 4.0 0.00 0.00 0.00 66 1010.0
20260902182004 80 264 2.0 5.0 0.00 0.00 0.00 67 1010.0
20260902181503 80 231 2.0 4.0 0.00 0.00 0.00 67 1009.9
20260902181003 80 243 3.0 7.0 0.00 0.00 0.00 66 1009.9
20260902180503 80 244 2.0 6.0 0.00 0.00 0.00 67 1009.8
20260902180005 80 239 2.0 7.0 0.00 0.00 0.00 66 1009.7
20260902175503 81 232 4.0 8.0 0.00 0.00 0.00 66 1009.7
20260902175003 81 256 3.0 7.0 0.00 0.00 0.00 66 1009.8
20260902174503 81 248 3.0 9.0 0.00 0.00 0.00 65 1009.7
20260902174003 81 259 3.0 6.0 0.00 0.00 0.00 65 1009.7
20260902173503 81 248 4.0 9.0 0.00 0.00 0.00 65 1009.9
20260902173003 81 240 4.0 8.0 0.00 0.00 0.00 65 1009.9
20260902172503 81 226 5.0 11.0 0.00 0.00 0.00 65 1009.7
20260902172004 81 241 4.0 11.0 0.00 0.00 0.00 65 1009.8
20260902171503 81 243 4.0 9.0 0.00 0.00 0.00 65 1010.0
20260902171003 81 235 5.0 10.0 0.00 0.00 0.00 65 1009.9
20260902170503 82 220 4.0 11.0 0.00 0.00 0.00 65 1009.8
20260902170003 82 236 5.0 14.0 0.00 0.00 0.00 64 1009.9
20260902165503 82 239 4.0 9.0 0.00 0.00 0.00 64 1010.0
20260902165003 82 263 5.0 10.0 0.00 0.00 0.00 64 1009.9
20260902164503 83 259 5.0 10.0 0.00 0.00 0.00 64 1010.2
20260902164004 83 265 5.0 9.0 0.00 0.00 0.00 64 1010.3
20260902163503 83 252 4.0 8.0 0.00 0.00 0.00 64 1010.5
20260902163003 82 232 4.0 10.0 0.00 0.00 0.00 65 1010.6
20260902162503 82 261 2.0 5.0 0.00 0.00 0.00 65 1010.6
20260902162004 81 321 2.0 6.0 0.00 0.00 0.00 65 1010.6
20260902161503 81 270 2.0 6.0 0.00 0.00 0.00 65 1010.7
20260902161003 81 282 5.0 10.0 0.00 0.00 0.00 65 1010.7
20260902160503 82 323 4.0 11.0 0.00 0.00 0.00 65 1010.8
20260902160004 82 314 5.0 10.0 0.00 0.00 0.00 65 1010.3
20260902155503 82 267 5.0 11.0 0.00 0.00 0.00 64 1010.6
20260902155003 82 239 6.0 15.0 0.00 0.00 0.00 63 1010.8
20260902154503 83 228 6.0 12.0 0.00 0.00 0.00 62 1010.6
20260902154003 83 246 5.0 11.0 0.00 0.00 0.00 62 1010.9
20260902153503 83 252 6.0 13.0 0.00 0.00 0.00 62 1010.9
20260902153003 84 257 5.0 11.0 0.00 0.00 0.00 63 1011.0
20260902152503 84 258 5.0 11.0 0.00 0.00 0.00 62 1010.8
20260902152003 85 243 6.0 12.0 0.00 0.00 0.00 61 1010.6
20260902151503 85 258 6.0 14.0 0.00 0.00 0.00 61 1010.4
20260902151003 86 250 6.0 12.0 0.00 0.00 0.00 62 1010.4
20260902150503 87 239 4.0 13.0 0.00 0.00 0.00 63 1010.5
20260902150003 87 181 2.0 5.0 0.00 0.00 0.00 62 1010.3
20260902145503 87 189 2.0 5.0 0.00 0.00 0.00 61 1010.1
20260902145003 87 188 3.0 8.0 0.00 0.00 0.00 60 1010.1
20260902144503 88 176 3.0 6.0 0.00 0.00 0.00 59 1010.0
20260902144003 88 151 2.0 4.0 0.00 0.00 0.00 59 1009.7
20260902143503 88 42 3.0 8.0 0.00 0.00 0.00 60 1009.8
20260902143003 88 72 2.0 6.0 0.00 0.00 0.00 61 1009.6
20260902142503 88 137 2.0 5.0 0.00 0.00 0.00 60 1009.5
20260902142003 88 96 2.0 6.0 0.00 0.00 0.00 60 1009.5
20260902141503 88 107 2.0 4.0 0.00 0.00 0.00 61 1009.7
20260902141003 88 135 3.0 7.0 0.00 0.00 0.00 60 1009.6
20260902140503 88 161 3.0 8.0 0.00 0.00 0.00 61 1009.9
20260902140003 89 180 4.0 7.0 0.00 0.00 0.00 58 1009.8
20260902135503 89 179 3.0 5.0 0.00 0.00 0.00 58 1009.5
20260902135004 89 190 2.0 8.0 0.00 0.00 0.00 58 1009.5
20260902134503 89 196 3.0 5.0 0.00 0.00 0.00 56 1009.7
20260902134003 89 185 3.0 6.0 0.00 0.00 0.00 58 1009.6
20260902133503 89 174 3.0 6.0 0.00 0.00 0.00 59 1009.5
20260902133003 89 158 3.0 6.0 0.00 0.00 0.00 59 1009.7
20260902132503 90 156 3.0 5.0 0.00 0.00 0.00 59 1009.8
20260902132003 90 149 3.0 9.0 0.00 0.00 0.00 58 1009.5
20260902131503 91 152 4.0 11.0 0.00 0.00 0.00 57 1009.6
20260902131003 92 177 4.0 9.0 0.00 0.00 0.00 54 1009.6
20260902130503 92 172 4.0 9.0 0.00 0.00 0.00 53 1009.7
20260902130003 92 179 5.0 9.0 0.00 0.00 0.00 55 1009.8
20260902125503 92 193 4.0 7.0 0.00 0.00 0.00 56 1009.9
20260902125003 93 170 6.0 10.0 0.00 0.00 0.00 54 1009.9
20260902124503 95 165 4.0 8.0 0.00 0.00 0.00 49 1009.9
20260902124003 94 187 3.0 5.0 0.00 0.00 0.00 50 1009.9
20260902123503 93 213 3.0 9.0 0.00 0.00 0.00 52 1009.9
20260902123003 92 195 4.0 9.0 0.00 0.00 0.00 52 1010.0
20260902122503 91 194 6.0 13.0 0.00 0.00 0.00 55 1010.2
20260902122003 92 204 5.0 12.0 0.00 0.00 0.00 57 1010.3
20260902121503 91 190 5.0 9.0 0.00 0.00 0.00 57 1010.3
20260902121004 91 200 5.0 12.0 0.00 0.00 0.00 56 1010.2
20260902120503 91 186 7.0 13.0 0.00 0.00 0.00 56 1010.2
20260902120003 91 201 6.0 13.0 0.00 0.00 0.00 57 1010.4
20260902115503 91 206 7.0 12.0 0.00 0.00 0.00 54 1010.4
20260902115003 92 204 5.0 10.0 0.00 0.00 0.00 54 1010.4
20260902114503 92 204 6.0 9.0 0.00 0.00 0.00 51 1010.5
20260902114003 92 206 6.0 10.0 0.00 0.00 0.00 50 1010.6
20260902113503 92 198 5.0 10.0 0.00 0.00 0.00 50 1010.5
20260902113003 92 210 4.0 9.0 0.00 0.00 0.00 50 1010.6
20260902112503 92 201 6.0 12.0 0.00 0.00 0.00 51 1010.6
20260902112003 92 205 5.0 11.0 0.00 0.00 0.00 47 1010.7
20260902111503 92 197 4.0 8.0 0.00 0.00 0.00 49 1010.7
20260902111003 92 191 4.0 8.0 0.00 0.00 0.00 49 1010.8
20260902110503 91 201 6.0 9.0 0.00 0.00 0.00 51 1010.9
20260902110005 91 197 5.0 10.0 0.00 0.00 0.00 52 1011.0
20260902105503 91 192 6.0 10.0 0.00 0.00 0.00 51 1010.9
20260902105003 91 190 5.0 10.0 0.00 0.00 0.00 54 1011.0
20260902104503 90 203 5.0 9.0 0.00 0.00 0.00 54 1011.2
20260902104003 90 214 6.0 10.0 0.00 0.00 0.00 53 1011.3
20260902103503 90 209 6.0 10.0 0.00 0.00 0.00 54 1011.3
20260902103003 90 203 5.0 10.0 0.00 0.00 0.00 56 1011.4
20260902102503 90 212 6.0 11.0 0.00 0.00 0.00 56 1011.2
20260902102003 89 198 5.0 10.0 0.00 0.00 0.00 58 1011.2
20260902101503 89 211 6.0 12.0 0.00 0.00 0.00 58 1011.3
20260902101003 89 217 7.0 11.0 0.00 0.00 0.00 59 1011.3
20260902100503 89 206 5.0 11.0 0.00 0.00 0.00 58 1011.4
20260902100003 89 205 5.0 11.0 0.00 0.00 0.00 59 1011.4
20260902095503 89 211 5.0 9.0 0.00 0.00 0.00 59 1011.6
20260902095003 89 206 5.0 9.0 0.00 0.00 0.00 59 1011.3
20260902094503 89 201 6.0 9.0 0.00 0.00 0.00 60 1011.3
20260902094003 89 210 5.0 9.0 0.00 0.00 0.00 59 1011.4
20260902093503 89 205 4.0 9.0 0.00 0.00 0.00 59 1011.3
20260902092503 89 206 5.0 9.0 0.00 0.00 0.00 59 1011.3
20260902092003 89 202 6.0 9.0 0.00 0.00 0.00 58 1011.4
20260902091503 90 206 4.0 8.0 0.00 0.00 0.00 56 1011.6
20260902091003 90 215 4.0 8.0 0.00 0.00 0.00 54 1011.4
20260902090503 89 213 6.0 12.0 0.00 0.00 0.00 53 1011.4
20260902090004 89 222 4.0 7.0 0.00 0.00 0.00 54 1011.6
20260902085503 89 224 4.0 7.0 0.00 0.00 0.00 56 1011.5
20260902085003 88 192 5.0 8.0 0.00 0.00 0.00 56 1011.6
20260902084506 89 200 4.0 7.0 0.00 0.00 0.00 54 1011.5
20260902084003 89 221 2.0 5.0 0.00 0.00 0.00 52 1011.5
20260902083503 89 195 3.0 7.0 0.00 0.00 0.00 53 1011.4
20260902083003 89 198 3.0 7.0 0.00 0.00 0.00 54 1011.5
20260902082503 89 204 4.0 7.0 0.00 0.00 0.00 55 1011.6
20260902082003 89 219 3.0 5.0 0.00 0.00 0.00 54 1011.3
20260902081503 88 215 3.0 5.0 0.00 0.00 0.00 54 1011.4
20260902081003 88 199 3.0 6.0 0.00 0.00 0.00 54 1011.5
20260902080503 88 203 4.0 6.0 0.00 0.00 0.00 54 1011.3
20260902080003 88 193 3.0 6.0 0.00 0.00 0.00 53 1011.4
20260902075503 88 216 2.0 6.0 0.00 0.00 0.00 52 1011.3
20260902075003 88 220 3.0 5.0 0.00 0.00 0.00 51 1011.3
20260902074503 88 210 3.0 6.0 0.00 0.00 0.00 50 1011.4
20260902074003 88 208 3.0 6.0 0.00 0.00 0.00 49 1011.3
20260902073503 88 206 2.0 4.0 0.00 0.00 0.00 48 1011.4
20260902073003 88 223 3.0 6.0 0.00 0.00 0.00 47 1011.5
20260902072503 89 246 2.0 6.0 0.00 0.00 0.00 46 1011.3
20260902072003 88 218 2.0 4.0 0.00 0.00 0.00 47 1011.3
20260902071503 88 288 2.0 4.0 0.00 0.00 0.00 47 1011.3
20260902071003 87 256 2.0 4.0 0.00 0.00 0.00 48 1011.3
20260902070503 87 245 2.0 5.0 0.00 0.00 0.00 49 1011.3
20260902070004 87 269 1.0 3.0 0.00 0.00 0.00 51 1011.3
20260902065503 86 273 1.0 3.0 0.00 0.00 0.00 51 1011.3
20260902065003 86 270 1.0 3.0 0.00 0.00 0.00 52 1011.2
20260902064504 85 244 1.0 4.0 0.00 0.00 0.00 52 1011.4
20260902064003 85 256 2.0 6.0 0.00 0.00 0.00 52 1011.4
20260902063503 84 273 3.0 6.0 0.00 0.00 0.00 53 1011.3
20260902063003 84 270 2.0 4.0 0.00 0.00 0.00 55 1011.3
20260902062503 83 273 3.0 6.0 0.00 0.00 0.00 54 1011.3
20260902062003 83 268 3.0 4.0 0.00 0.00 0.00 55 1011.2
20260902061504 83 262 2.0 4.0 0.00 0.00 0.00 56 1011.2
20260902061003 83 269 3.0 5.0 0.00 0.00 0.00 56 1011.2
20260902060503 83 249 2.0 4.0 0.00 0.00 0.00 57 1011.2
20260902060003 82 274 3.0 6.0 0.00 0.00 0.00 58 1011.2
20260902055503 82 253 3.0 6.0 0.00 0.00 0.00 58 1011.1
20260902055003 82 262 3.0 6.0 0.00 0.00 0.00 59 1011.2
20260902054503 81 266 2.0 4.0 0.00 0.00 0.00 60 1011.2
20260902054003 81 274 2.0 6.0 0.00 0.00 0.00 60 1011.1
20260902053503 81 263 2.0 4.0 0.00 0.00 0.00 60 1011.2
20260902053003 81 270 2.0 5.0 0.00 0.00 0.00 61 1011.2
20260902052503 81 272 1.0 3.0 0.00 0.00 0.00 61 1011.2
20260902052003 80 272 1.0 2.0 0.00 0.00 0.00 61 1011.2
20260902051503 80 271 1.0 3.0 0.00 0.00 0.00 60 1011.1
20260902051003 79 270 0.0 1.0 0.00 0.00 0.00 60 1011.0
20260902050504 79 288 0.0 2.0 0.00 0.00 0.00 59 1011.1
20260902050005 78 315 0.0 1.0 0.00 0.00 0.00 59 1011.0
20260902045503 78 315 0.0 1.0 0.00 0.00 0.00 59 1011.0
20260902045003 77 315 0.0 2.0 0.00 0.00 0.00 59 1011.0
20260902044503 77 298 1.0 2.0 0.00 0.00 0.00 60 1011.0